, AK

(GMT )
Northway

Weather History for PAOR - March, 2013

Change the Weather History Date:

Tuesday, March 19, 2013

  Actual Average Record
Temperature  
Mean Temperature 0 °F -  
Max Temperature 12 °F 25 °F 44 °F (1981)
Min Temperature -16 °F -6 °F -38 °F (1964)
Degree Days  
Heating Degree Days 66    
Moisture  
Dew Point -9 °F    
Average Humidity 68    
Maximum Humidity 88    
Minimum Humidity 39    
Precipitation  
Precipitation 0.00 in - - ()
Snow  
Snow 0.00 in - - ()
Snow Depth 14.00 in    
Sea Level Pressure  
Sea Level Pressure 30.07 in    
Wind  
Wind Speed 3 mph (NW)    
Max Wind Speed 10 mph    
Max Gust Speed -    
Visibility 10 miles    
Events Snow    
Averages and records for this station are not official NWS values.
T = Trace of Precipitation, MM = Missing Value Source: NWS Daily Summary

Daily Weather History Graph

Daily Weather History Graph

Search for Another Location

Airport or City:

Trip Planner

Search our weather history database for the weather conditions in past years. The results will help you decide how hot, cold, wet, or windy it might be!

Date:

Astronomy

Mar. 19, 2013 Rise Set
Actual Time 7:30 AM AKDT 7:41 PM AKDT
Civil Twilight 6:44 AM AKDT 8:27 PM AKDT
Nautical Twilight 5:49 AM AKDT 9:23 PM AKDT
Astronomical Twilight 4:47 AM AKDT 10:25 PM AKDT
Moon 10:36 AM AKDT (3/19) 4:27 AM AKDT (3/19)
Length of Visible Light 13h 42m
Length of Day
12h 11m
Waxing Crescent, 51% of the Moon is Illuminated
Mar 19
Waxing Crescent
Mar 27
Full
Apr 2
Last Quarter
Apr 10
New
Apr 18
First Quarter

Hourly Weather History & Observations

Time (AKDT) Temp. Windchill Dew Point Humidity Pressure Visibility Wind Dir Wind Speed Gust Speed Precip Events Conditions
12:53 AM 5.0 °F -2.1 °F 1.0 °F 84% 30.03 in 10.0 mi WNW 3.5 mph - N/A   Scattered Clouds
1:53 AM 1.9 °F -9.2 °F -2.0 °F 83% 30.04 in 10.0 mi NW 5.8 mph - N/A   Scattered Clouds
2:53 AM 1.9 °F -9.2 °F -0.9 °F 88% 30.04 in 10.0 mi NW 5.8 mph - N/A   Scattered Clouds
3:53 AM -0.0 °F -9.9 °F -4.0 °F 83% 30.06 in 10.0 mi WNW 4.6 mph - N/A   Scattered Clouds
4:53 AM -7.1 °F - -11.9 °F 79% 30.08 in 10.0 mi Calm Calm - N/A   Scattered Clouds
5:53 AM -11.9 °F - -17.0 °F 78% 30.09 in 10.0 mi Calm Calm - N/A   Scattered Clouds
6:53 AM -13.0 °F -25.1 °F -18.0 °F 78% 30.11 in 10.0 mi NW 4.6 mph - N/A   Scattered Clouds
7:53 AM -11.9 °F -21.5 °F -17.0 °F 78% 30.11 in 10.0 mi WNW 3.5 mph - N/A   Mostly Cloudy
8:53 AM -6.0 °F - -9.9 °F 83% 30.10 in 10.0 mi Calm Calm - N/A   Mostly Cloudy
9:53 AM -2.9 °F - -6.0 °F 87% 30.11 in 10.0 mi Calm Calm - N/A   Mostly Cloudy
10:53 AM 6.1 °F -0.9 °F -0.9 °F 73% 30.09 in 10.0 mi NW 3.5 mph - N/A   Scattered Clouds
11:53 AM 10.0 °F 1.8 °F -5.1 °F 51% 30.08 in 10.0 mi NW 4.6 mph - N/A   Mostly Cloudy
12:53 PM 9.0 °F - -8.0 °F 46% 30.08 in 10.0 mi Calm Calm - N/A   Mostly Cloudy
1:53 PM 10.9 °F - -7.1 °F 44% 30.07 in 10.0 mi Calm Calm - N/A   Mostly Cloudy
2:53 PM 12.9 °F -0.2 °F -8.0 °F 39% 30.06 in 10.0 mi NW 10.4 mph - N/A   Mostly Cloudy
3:53 PM 12.9 °F 3.8 °F -7.1 °F 41% 30.04 in 10.0 mi Variable 5.8 mph - N/A   Mostly Cloudy
4:53 PM 10.0 °F 0.4 °F -6.0 °F 48% 30.05 in 10.0 mi WNW 5.8 mph - N/A   Mostly Cloudy
5:53 PM 12.0 °F 1.5 °F -6.0 °F 44% 30.05 in 10.0 mi NNW 6.9 mph - N/A   Mostly Cloudy
6:53 PM 8.1 °F -2.0 °F -5.1 °F 55% 30.06 in 10.0 mi North 5.8 mph - N/A   Scattered Clouds
7:53 PM 1.9 °F -5.6 °F -7.1 °F 66% 30.08 in 10.0 mi NNW 3.5 mph - N/A   Scattered Clouds
8:53 PM -5.1 °F - -11.9 °F 72% 30.09 in 10.0 mi Calm Calm - N/A   Scattered Clouds
9:53 PM -11.9 °F -21.5 °F -17.0 °F 78% 30.09 in 10.0 mi West 3.5 mph - N/A   Scattered Clouds
10:53 PM -13.0 °F - -20.0 °F 71% 30.08 in 10.0 mi Calm Calm - N/A   Scattered Clouds
11:53 PM -16.1 °F - -20.9 °F 79% 30.07 in 7.0 mi Calm Calm - N/A Snow Light Snow